Flag for U.S.A. Weather past 2 weeks in Leesburg, Virginia, U.S.A.

Now
72 °F

Overcast.


Feels Like: 74 °F
Forecast: 58 / 75 °F
Wind: 15 mph from Northwest

Location: Leesburg / Godfrey

Current Time: Jul 28, 2014 at 9:26:25 PM

Latest Report: Jul 28, 2014 at 8:55 PM


Visibility: 10 mi

Pressure: 29.82 "Hg

Humidity: 73%

Dew point: 63 °F

Location of LeesburgLocation

Historic Weather in Leesburg — Graph

°F

Leesburg temperature yesterday

Maximum temperature yesterday: 88 °F (at 2:15 PM)
Minimum temperature yesterday: 70 °F (at 4:55 AM)
Average temperature yesterday: 77 °F

Past Weeks' High & Low Weather Summary

 TemperatureHumidityPressure
High95 °F (Jul 23, 3:15 PM)100% (Jul 13, 8:55 PM)30.27 "Hg (Jul 13, 8:55 PM)
Low57 °F (Jul 18, 6:15 AM)40% (Jul 26, 6:15 PM)29.60 "Hg (Jul 28, 4:15 AM)
Average74 °F78%29.99 "Hg
* Reported Jul 13 7:15 PM — Jul 28 7:55 PM, Leesburg, Weather by CustomWeather, © 2014

Note: Actual official high and low records may vary slightly from our data, if they occured in-between our weather recording intervals... More about our weather records

Advertising

Leesburg weather history for previous 24 hours

 ConditionsComfort  
Time TempWeatherWind HumidityBarometerVisibility
7:55 PM
Jul 28
73 °FMore clouds than sun.16 mph69%29.79 "Hg10 mi
7:35 PM73 °FCloudy.14 mph69%29.78 "Hg10 mi
7:15 PM73 °FMore clouds than sun.13 mph65%29.77 "Hg10 mi
6:55 PM75 °FOvercast.14 mph61%29.76 "Hg10 mi
6:35 PM75 °FMostly cloudy.8 mph61%29.76 "Hg10 mi
6:15 PM77 °FCloudy.13 mph57%29.76 "Hg10 mi
5:55 PM77 °FBroken clouds.12 mph57%29.75 "Hg10 mi
5:15 PM79 °FCloudy.13 mph54%29.74 "Hg10 mi
4:55 PM81 °FBroken clouds.17 mph51%29.73 "Hg10 mi
4:35 PM81 °FPartly sunny.14 mph54%29.73 "Hg10 mi
4:15 PM79 °FMostly cloudy.17 mph54%29.72 "Hg10 mi
3:55 PM79 °FMostly cloudy.14 mph54%29.72 "Hg10 mi
3:35 PM81 °FBroken clouds.15 mph54%29.71 "Hg10 mi
3:15 PM81 °FBroken clouds.15 mph54%29.71 "Hg10 mi
2:55 PM77 °FOvercast.16 mph57%29.71 "Hg10 mi
2:35 PM79 °FScattered clouds.17 mph58%29.71 "Hg10 mi
2:15 PM79 °FScattered clouds.15 mph58%29.71 "Hg10 mi
1:55 PM79 °FScattered clouds.21 mph54%29.71 "Hg10 mi
1:35 PM81 °FBroken clouds.13 mph58%29.71 "Hg10 mi
1:15 PM81 °FBroken clouds.16 mph54%29.71 "Hg10 mi
12:55 PM81 °FScattered clouds.18 mph51%29.70 "Hg10 mi
12:35 PM81 °FScattered clouds.15 mph54%29.70 "Hg10 mi
12:15 PM79 °FBroken clouds.15 mph58%29.70 "Hg10 mi
11:55 AM81 °FScattered clouds.13 mph54%29.70 "Hg10 mi
11:35 AM79 °FScattered clouds.14 mph58%29.70 "Hg10 mi
11:15 AM79 °FScattered clouds.13 mph58%29.69 "Hg10 mi
10:55 AM79 °FScattered clouds.17 mph58%29.69 "Hg10 mi
10:35 AM79 °FScattered clouds.18 mph58%29.69 "Hg10 mi
10:15 AM77 °FScattered clouds.16 mph65%29.68 "Hg10 mi
9:55 AM75 °FBroken clouds.20 mph65%29.68 "Hg10 mi
9:35 AM75 °FBroken clouds.17 mph69%29.68 "Hg10 mi
9:15 AM77 °FMore clouds than sun.14 mph65%29.67 "Hg10 mi
8:55 AM77 °FBroken clouds.12 mph69%29.66 "Hg10 mi
8:35 AM77 °FScattered clouds.12 mph69%29.66 "Hg10 mi
8:15 AM77 °FScattered clouds.8 mph74%29.65 "Hg10 mi
7:55 AM77 °FScattered clouds.7 mph74%29.65 "Hg10 mi
7:15 AM72 °FSunny.8 mph88%29.63 "Hg10 mi
6:55 AM72 °FClear.8 mph88%29.63 "Hg10 mi
6:35 AM68 °FClear.7 mph100%29.63 "Hg10 mi
6:15 AM68 °FClear.8 mph100%29.62 "Hg10 mi
5:55 AM68 °FClear.5 mph100%29.62 "Hg10 mi
5:15 AM68 °FClear.6 mph100%29.61 "Hg10 mi
4:55 AM68 °FClear.7 mph100%29.61 "Hg10 mi
4:35 AM68 °FClear.No wind100%29.60 "Hg10 mi
4:15 AM68 °FClear.No wind100%29.60 "Hg10 mi
3:55 AM68 °FClear.No wind100%29.61 "Hg10 mi
3:35 AM68 °FClear.No wind100%29.62 "Hg10 mi
3:15 AM68 °FClear.No wind100%29.63 "Hg10 mi
2:55 AM68 °FClear.No wind100%29.62 "Hg10 mi
2:15 AM68 °FClear.3 mph100%29.63 "Hg10 mi
1:55 AM70 °FClear.No wind100%29.63 "Hg10 mi
1:35 AM70 °FClear.5 mph100%29.64 "Hg10 mi
1:15 AM72 °FClear.No wind94%29.64 "Hg10 mi
12:55 AM73 °FPassing clouds.7 mph89%29.65 "Hg10 mi
12:35 AM73 °FClear.3 mph89%29.65 "Hg10 mi
12:15 AM73 °FLight rain. Passing clouds.12 mph94%29.63 "Hg10 mi
11:55 PM
Jul 27
75 °FLight rain. Passing clouds.12 mph94%29.62 "Hg10 mi
11:35 PM77 °FLight rain. Passing clouds.14 mph89%29.65 "Hg10 mi
11:15 PM77 °FThundershowers. Partly cloudy.7 mph89%29.68 "Hg10 mi
10:15 PM79 °FPassing clouds.6 mph84%29.67 "Hg10 mi
9:55 PM79 °FOvercast.No wind84%29.68 "Hg10 mi
9:35 PM79 °FPassing clouds.5 mph84%29.68 "Hg10 mi
9:15 PM79 °FPartly sunny.5 mph84%29.68 "Hg10 mi
Weather by CustomWeather, © 2014

See weather overviewHow to use our weather pages